Regional Weather Roundup
Issued by NWS Goodland, KS

Home | Current Version | Previous Version | Graphics & Text | Print | Product List | Glossary On
Versions: 1 2 3 4 5 6 7 8 9 10 11 12 13 14 15 16 17 18 19 20 21 22 23 24 25 26 27 28 29 30 31 32 33 34 35 36 37 38 39 40 41 42 43 44 45 46 47 48 49 50
000
ASUS43 KGLD 261859
RWRGLD

GOODLAND FORECAST AREA HOURLY WEATHER ROUNDUP
NATIONAL WEATHER SERVICE GOODLAND KS
100 PM MDT MON JUN 26 2017

...OFFICIAL OBSERVATIONS...

CITY           SKY/WX    TMP DP  RH WIND       PRES   REMARKS
GOODLAND KS    SUNNY     82  54  37 S6        30.17F
HILL CITY KS   SUNNY     81  64  56 MISG      30.14F
IMPERIAL NEB   SUNNY     83  50  31 S7        30.15F
MCCOOK NEB     SUNNY     82  58  43 VRB3      30.13F
AKRON CO       SUNNY     82  50  32 VRB5      30.19F
BURLINGTON CO  SUNNY     82  54  37 E7        30.18F
LIMON CO       MOSUNNY   81  45  28 S10G17    30.22F
$$

...UNOFFICIAL OBSERVATIONS...

CITY           SKY/WX    TMP DP  RH WIND       PRES   REMARKS
LENORA KS        N/A     78  32  18 MISG        N/A
NORTON KS      PTSUNNY   82  54  36 E7        30.12
SHARON SPRINGS   N/A     82  59  45 E6          N/A
TRENTON NEB      N/A     81  32  17 CALM        N/A
KIT CARSON CO    N/A     81  56  41 CALM        N/A
YUMA CO        FAIR      77  55  47 SE5       30.18F
$$




USA.gov is the U.S. government's official web portal to all federal, state and local government web resources and services.